CW0351 Weather Reports


Display with metric or nautical units.
time (UTC)temp
F
wind
direction
speed
MPH
gust
MPH
rain 1hr
in
rain 24hr
in
rain mn
in
humidity
%
barometer
mb
20260906214559 75 0 0.0 0.0 0.00 0.00 0.00 55 1015.5
20260906213058 76 0 0.0 5.0 0.00 0.00 0.00 54 1015.5
20260906211558 76 0 0.0 3.0 0.00 0.00 0.00 56 1015.4
20260906204620 79 0 0.0 7.0 0.00 0.00 0.00 52 1015.4
20260906203054 79 346 0.0 0.0 0.00 0.00 0.00 49 1015.3
20260906201605 79 0 0.0 4.0 0.00 0.00 0.00 50 1015.3
20260906194558 78 0 0.0 8.0 0.00 0.00 0.00 55 1015.4
20260906193056 79 0 0.0 5.0 0.00 0.00 0.00 54 1015.4
20260906191602 78 0 0.0 8.0 0.00 0.00 0.00 55 1015.4
20260906190058 77 0 0.0 5.0 0.00 0.00 0.00 55 1015.4
20260906184556 76 0 0.0 5.0 0.00 0.00 0.00 57 1015.7
20260906183104 77 0 0.0 6.0 0.00 0.00 0.00 58 1015.6
20260906181603 75 0 0.0 7.0 0.00 0.00 0.00 57 1015.8
20260906180106 75 0 0.0 6.0 0.00 0.00 0.00 59 1015.9
20260906174604 75 61 0.0 8.0 0.00 0.00 0.00 59 1015.9
20260906173104 75 0 1.0 7.0 0.00 0.00 0.00 59 1016.0
20260906171609 74 0 0.0 12.0 0.00 0.00 0.00 60 1016.1
20260906170055 74 0 1.0 6.0 0.00 0.00 0.00 64 1016.2
20260906164555 73 0 1.0 9.0 0.00 0.00 0.00 65 1016.2
20260906163103 72 59 2.0 8.0 0.00 0.00 0.00 67 1016.3
20260906161611 72 46 2.0 7.0 0.00 0.00 0.00 68 1016.4
20260906160110 71 0 1.0 12.0 0.00 0.00 0.00 71 1016.3
20260906154606 70 51 1.0 9.0 0.00 0.00 0.00 72 1016.5
20260906153109 71 9 1.0 6.0 0.00 0.00 0.00 70 1016.5
20260906151606 70 0 0.0 5.0 0.00 0.00 0.00 74 1016.3
20260906150106 70 0 2.0 5.0 0.00 0.00 0.00 74 1016.3
20260906144605 70 14 1.0 11.0 0.00 0.00 0.00 74 1016.3
20260906143112 69 0 0.0 9.0 0.00 0.00 0.00 76 1016.4
20260906141603 69 85 2.0 7.0 0.00 0.00 0.00 77 1016.1
20260906134605 69 38 2.0 6.0 0.00 0.00 0.00 75 1015.9
20260906133111 69 0 2.0 5.0 0.00 0.00 0.00 74 1015.7
20260906131606 68 0 0.0 6.0 0.00 0.00 0.00 76 1015.7
20260906130104 67 22 0.0 4.0 0.00 0.00 0.00 79 1015.9
20260906124603 66 22 1.0 7.0 0.00 0.00 0.00 81 1015.8
20260906123101 66 54 2.0 5.0 0.00 0.00 0.00 85 1015.7
20260906121600 64 38 1.0 5.0 0.00 0.00 0.00 90 1015.6
20260906120137 63 0 0.0 4.0 0.00 0.00 0.00 94 1015.4
20260906114609 62 0 0.0 2.0 0.00 0.00 0.00 96 1015.2
20260906113102 60 0 0.0 0.0 0.00 0.00 0.00 96 1014.9
20260906111600 59 0 0.0 0.0 0.00 0.00 0.00 95 1014.6
20260906110057 59 0 0.0 0.0 0.00 0.00 0.00 95 1014.6
20260906104557 59 0 0.0 0.0 0.00 0.00 0.00 94 1014.3
20260906103055 59 0 0.0 0.0 0.00 0.00 0.00 94 1014.1
20260906101554 59 0 0.0 0.0 0.00 0.00 0.00 94 1014.0
20260906094601 60 0 0.0 0.0 0.00 0.00 0.00 94 1013.7
20260906093057 60 0 0.0 0.0 0.00 0.00 0.00 94 1013.5
20260906091558 60 0 0.0 0.0 0.00 0.00 0.00 94 1013.2
20260906090100 60 0 0.0 0.0 0.00 0.00 0.00 93 1013.0
20260906084600 60 0 0.0 0.0 0.00 0.00 0.00 93 1013.2
20260906083054 59 0 0.0 0.0 0.00 0.00 0.00 92 1013.0
20260906081600 59 0 0.0 0.0 0.00 0.00 0.00 92 1013.0
20260906080059 60 0 0.0 0.0 0.00 0.00 0.00 91 1013.1
20260906074556 60 0 0.0 0.0 0.00 0.00 0.00 91 1013.1
20260906073057 60 0 0.0 0.0 0.00 0.00 0.00 90 1013.1
20260906071602 60 0 0.0 0.0 0.00 0.00 0.00 89 1012.9
20260906070056 61 0 0.0 0.0 0.00 0.00 0.00 88 1013.0
20260906064601 61 0 0.0 0.0 0.00 0.00 0.00 88 1013.1
20260906063057 62 0 0.0 0.0 0.00 0.00 0.00 87 1013.0
20260906061603 62 0 0.0 0.0 0.00 0.00 0.00 86 1013.1
20260906060107 62 0 0.0 0.0 0.00 0.00 0.00 85 1013.4
20260906054629 63 0 0.0 0.0 0.00 0.00 0.00 84 1013.3
20260906053056 63 0 0.0 0.0 0.00 0.00 0.00 83 1013.4
20260906051554 64 0 0.0 0.0 0.00 0.00 0.00 82 1013.4
20260906050107 64 0 0.0 0.0 0.00 0.00 0.00 81 1013.5
20260906044601 64 0 0.0 2.0 0.00 0.00 0.00 81 1013.5
20260906043055 63 0 0.0 0.0 0.00 0.00 0.00 83 1013.5
20260906041553 64 0 0.0 0.0 0.00 0.00 0.00 83 1013.5
20260906040114 64 0 0.0 0.0 0.00 0.00 0.00 82 1013.4
20260906034557 65 0 0.0 0.0 0.00 0.00 0.00 80 1013.4
20260906033101 64 0 0.0 0.0 0.00 0.00 0.00 80 1013.3
20260906031611 64 0 0.0 0.0 0.00 0.00 0.00 81 1013.1
20260906030056 65 0 0.0 0.0 0.00 0.00 0.00 80 1013.1
20260906024605 65 0 0.0 0.0 0.00 0.00 0.00 80 1013.1
20260906023102 65 0 0.0 0.0 0.00 0.00 0.00 78 1012.9
20260906021604 65 0 0.0 0.0 0.00 0.00 0.00 78 1012.9
20260906020057 65 0 0.0 0.0 0.00 0.00 0.00 77 1013.0
20260906014555 66 0 0.0 0.0 0.00 0.00 0.00 76 1012.9
20260906013104 66 0 0.0 0.0 0.00 0.00 0.00 75 1012.8
20260906011555 67 0 0.0 0.0 0.00 0.00 0.00 73 1012.7
20260906010056 68 0 0.0 0.0 0.00 0.00 0.00 71 1012.5
20260906004603 68 0 0.0 0.0 0.00 0.00 0.00 71 1012.2
20260906003108 68 0 0.0 0.0 0.00 0.00 0.00 72 1012.1
20260906001555 69 0 0.0 0.0 0.00 0.00 0.00 72 1011.8
20260906000108 69 0 0.0 0.0 0.00 0.00 0.00 70 1011.6
20260905234607 70 0 0.0 0.0 0.00 0.00 0.00 69 1011.5
20260905233103 71 0 0.0 0.0 0.00 0.00 0.00 65 1011.4
20260905231555 72 0 0.0 0.0 0.00 0.00 0.00 63 1011.4
20260905230059 73 0 0.0 0.0 0.00 0.00 0.00 60 1011.2
20260905224555 74 0 0.0 0.0 0.00 0.00 0.00 58 1011.2
20260905223055 74 0 0.0 5.0 0.00 0.00 0.00 57 1011.4
20260905221604 75 0 0.0 0.0 0.00 0.00 0.00 58 1011.1
20260905220057 76 0 0.0 0.0 0.00 0.00 0.00 58 1011.0
20260905214554 77 0 0.0 1.0 0.00 0.00 0.00 55 1011.2
20260905213105 78 0 0.0 0.0 0.00 0.00 0.00 51 1010.9
20260905211608 79 0 1.0 6.0 0.00 0.00 0.00 48 1011.0
20260905204556 78 0 0.0 5.0 0.00 0.00 0.00 54 1010.9
20260905203113 77 0 0.0 0.0 0.00 0.00 0.00 55 1011.0
20260905201602 77 0 0.0 4.0 0.00 0.00 0.00 53 1011.0
20260905200117 78 0 0.0 1.0 0.00 0.00 0.00 50 1011.0
20260905194608 77 0 1.0 5.0 0.00 0.00 0.00 55 1011.2
20260905193101 77 0 0.0 10.0 0.00 0.00 0.00 56 1011.2
20260905191555 78 0 0.0 4.0 0.00 0.00 0.00 57 1011.3
20260905190054 79 0 1.0 8.0 0.00 0.00 0.00 52 1011.2
20260905184609 77 0 0.0 4.0 0.00 0.00 0.00 61 1011.3
20260905183058 78 0 1.0 8.0 0.00 0.00 0.00 54 1011.5
20260905181555 78 0 0.0 1.0 0.00 0.00 0.00 57 1011.4
20260905180105 78 0 0.0 4.0 0.00 0.00 0.00 55 1011.5
20260905174557 78 0 0.0 8.0 0.00 0.00 0.00 50 1011.4
20260905173105 77 19 0.0 9.0 0.00 0.00 0.00 55 1011.6
20260905171553 76 0 0.0 3.0 0.00 0.00 0.00 56 1011.7
20260905164554 77 0 0.0 8.0 0.00 0.00 0.00 55 1011.9
20260905163056 76 0 0.0 8.0 0.00 0.00 0.00 55 1012.1
20260905161557 76 0 0.0 6.0 0.00 0.00 0.00 56 1012.3
20260905160056 76 17 0.0 8.0 0.00 0.00 0.00 58 1012.5
20260905154557 76 0 0.0 4.0 0.00 0.00 0.00 58 1012.3
20260905153052 75 23 0.0 7.0 0.00 0.00 0.00 60 1012.4
20260905151612 75 0 1.0 8.0 0.00 0.00 0.00 59 1012.4
20260905150055 74 0 0.0 8.0 0.00 0.00 0.00 61 1012.2
20260905144558 74 0 2.0 9.0 0.00 0.00 0.00 60 1012.1
20260905143103 74 0 1.0 7.0 0.00 0.00 0.00 63 1012.1
20260905141558 73 0 1.0 7.0 0.00 0.00 0.00 65 1012.2
20260905140056 73 0 1.0 5.0 0.00 0.00 0.00 67 1012.3
20260905134605 73 0 1.0 9.0 0.00 0.00 0.00 68 1012.3
20260905133100 72 61 2.0 6.0 0.00 0.00 0.00 70 1012.2
20260905131607 71 44 0.0 4.0 0.00 0.00 0.00 74 1012.2
20260905124606 69 0 0.0 0.0 0.00 0.00 0.00 80 1012.1
20260905123104 68 0 0.0 0.0 0.00 0.00 0.00 84 1012.3
20260905121600 68 0 0.0 0.0 0.00 0.00 0.00 85 1012.4
20260905120057 68 0 0.0 0.0 0.00 0.00 0.00 83 1012.4
20260905114556 68 0 0.0 0.0 0.00 0.00 0.00 82 1012.3
20260905113101 68 0 0.0 0.0 0.00 0.00 0.00 82 1012.1
20260905111557 68 0 0.0 0.0 0.00 0.00 0.00 81 1012.0
20260905110109 68 0 0.0 0.0 0.00 0.00 0.00 82 1012.0
20260905104556 68 0 0.0 0.0 0.00 0.00 0.00 81 1011.7
20260905103056 68 0 0.0 0.0 0.00 0.00 0.00 81 1011.5
20260905101609 68 0 0.0 0.0 0.00 0.00 0.00 83 1011.3
20260905100056 69 0 0.0 0.0 0.00 0.00 0.00 83 1011.2